Time,TemperatureF,DewpointF,PressureIn,WindDirection,WindDirectionDegrees,WindSpeedMPH,WindSpeedGustMPH,Humidity,HourlyPrecipIn,Conditions,Clouds,dailyrainin,SoftwareType,DateUTC
2013-01-16 00:05:00,46.0,45.2,30.09,East,81,2.0,3.0,97,0.00,,,0.00,Wunderground v.1.15,2013-01-16 05:05:00,
2013-01-16 00:15:00,46.1,45.3,30.09,East,84,1.0,1.0,97,0.00,,,0.00,Wunderground v.1.15,2013-01-16 05:15:00,
2013-01-16 00:20:00,46.2,45.4,30.08,East,84,0.0,0.0,97,0.00,,,0.00,Wunderground v.1.15,2013-01-16 05:20:00,
2013-01-16 00:25:00,46.3,45.5,30.09,East,84,0.0,0.0,97,0.00,,,0.00,Wunderground v.1.15,2013-01-16 05:25:00,
2013-01-16 00:30:00,46.4,45.6,30.09,East,82,0.0,0.0,97,0.00,,,0.00,Wunderground v.1.15,2013-01-16 05:30:00,
2013-01-16 00:35:00,46.5,45.7,30.10,WNW,303,1.0,4.0,97,0.00,,,0.00,Wunderground v.1.15,2013-01-16 05:35:00,
2013-01-16 00:45:00,46.7,45.9,30.09,WNW,302,1.0,2.0,97,0.00,,,0.00,Wunderground v.1.15,2013-01-16 05:45:00,
2013-01-16 00:55:00,46.7,45.9,30.08,WNW,302,0.0,0.0,97,0.00,,,0.00,Wunderground v.1.15,2013-01-16 05:55:00,
2013-01-16 01:05:00,46.8,46.0,30.08,WNW,302,0.0,0.0,97,0.00,,,0.00,Wunderground v.1.15,2013-01-16 06:05:00,
2013-01-16 01:15:00,46.8,46.0,30.07,WNW,302,0.0,0.0,97,0.00,,,0.00,Wunderground v.1.15,2013-01-16 06:15:00,
2013-01-16 01:25:00,46.9,46.1,30.08,WNW,302,0.0,4.0,97,0.00,,,0.00,Wunderground v.1.15,2013-01-16 06:25:00,
2013-01-16 01:35:00,47.0,46.2,30.09,WNW,302,1.0,1.0,97,0.00,,,0.00,Wunderground v.1.15,2013-01-16 06:35:00,
2013-01-16 01:40:00,47.0,46.2,30.09,WNW,302,1.0,1.0,97,0.00,,,0.00,Wunderground v.1.15,2013-01-16 06:40:00,
2013-01-16 01:45:00,46.9,46.1,30.08,WNW,302,1.0,1.0,97,0.00,,,0.00,Wunderground v.1.15,2013-01-16 06:45:00,
2013-01-16 01:50:00,46.8,46.0,30.08,WNW,303,1.0,1.0,97,0.00,,,0.00,Wunderground v.1.15,2013-01-16 06:50:00,
2013-01-16 01:55:00,46.8,46.0,30.08,WNW,303,0.0,1.0,97,0.00,,,0.00,Wunderground v.1.15,2013-01-16 06:55:00,
2013-01-16 02:00:00,46.7,45.9,30.08,WNW,303,0.0,0.0,97,0.00,,,0.00,Wunderground v.1.15,2013-01-16 07:00:00,
2013-01-16 02:05:00,46.7,45.9,30.07,WNW,303,0.0,0.0,97,0.00,,,0.00,Wunderground v.1.15,2013-01-16 07:05:00,
2013-01-16 02:15:00,46.7,45.9,30.07,WNW,303,0.0,0.0,97,0.00,,,0.00,Wunderground v.1.15,2013-01-16 07:15:00,
2013-01-16 02:20:00,46.7,45.9,30.09,WNW,303,1.0,5.0,97,0.00,,,0.00,Wunderground v.1.15,2013-01-16 07:20:00,
2013-01-16 02:25:00,46.8,46.0,30.09,NW,306,3.0,5.0,97,0.00,,,0.00,Wunderground v.1.15,2013-01-16 07:25:00,
2013-01-16 02:30:00,46.7,45.9,30.09,NW,306,3.0,3.0,97,0.00,,,0.00,Wunderground v.1.15,2013-01-16 07:30:00,
2013-01-16 02:40:00,46.6,45.8,30.09,NW,306,1.0,4.0,97,0.00,,,0.00,Wunderground v.1.15,2013-01-16 07:40:00,
2013-01-16 02:45:00,46.4,45.6,30.09,NW,313,1.0,4.0,97,0.00,,,0.00,Wunderground v.1.15,2013-01-16 07:45:00,
2013-01-16 02:50:00,46.4,45.6,30.09,NW,312,1.0,1.0,97,0.00,,,0.00,Wunderground v.1.15,2013-01-16 07:50:00,
2013-01-16 03:00:00,46.4,45.6,30.08,NW,313,0.0,0.0,97,0.00,,,0.00,Wunderground v.1.15,2013-01-16 08:00:00,
2013-01-16 03:05:00,46.3,45.5,30.08,NW,313,0.0,0.0,97,0.00,,,0.00,Wunderground v.1.15,2013-01-16 08:05:00,
2013-01-16 03:15:00,46.3,45.5,30.07,NW,313,0.0,0.0,97,0.00,,,0.00,Wunderground v.1.15,2013-01-16 08:15:00,
2013-01-16 03:20:00,46.3,45.5,30.07,NW,313,0.0,0.0,97,0.00,,,0.00,Wunderground v.1.15,2013-01-16 08:20:00,
2013-01-16 03:30:00,46.3,45.5,30.07,NW,313,0.0,0.0,97,0.00,,,0.00,Wunderground v.1.15,2013-01-16 08:30:00,
2013-01-16 03:40:00,46.3,45.5,30.08,NW,316,0.0,2.0,97,0.00,,,0.00,Wunderground v.1.15,2013-01-16 08:40:00,
2013-01-16 03:50:00,46.2,45.4,30.07,NW,317,0.0,1.0,97,0.00,,,0.00,Wunderground v.1.15,2013-01-16 08:50:00,
2013-01-16 04:00:00,46.1,45.3,30.07,NW,318,0.0,0.0,97,0.00,,,0.00,Wunderground v.1.15,2013-01-16 09:00:00,
2013-01-16 04:05:00,46.0,45.2,30.07,NW,318,1.0,2.0,97,0.00,,,0.00,Wunderground v.1.15,2013-01-16 09:05:00,
2013-01-16 04:15:00,45.8,45.0,30.07,NW,321,0.0,2.0,97,0.00,,,0.00,Wunderground v.1.15,2013-01-16 09:15:00,
2013-01-16 04:20:00,45.7,44.9,30.06,NW,321,0.0,0.0,97,0.00,,,0.00,Wunderground v.1.15,2013-01-16 09:20:00,
2013-01-16 04:25:00,45.8,45.0,30.06,NW,321,0.0,0.0,97,0.00,,,0.00,Wunderground v.1.15,2013-01-16 09:25:00,
2013-01-16 04:35:00,45.6,44.8,30.05,NW,321,1.0,1.0,97,0.00,,,0.00,Wunderground v.1.15,2013-01-16 09:35:00,
2013-01-16 04:45:00,45.5,44.7,30.05,NW,321,0.0,2.0,97,0.00,,,0.00,Wunderground v.1.15,2013-01-16 09:45:00,
2013-01-16 04:55:00,45.4,44.6,30.06,NW,321,1.0,2.0,97,0.00,,,0.00,Wunderground v.1.15,2013-01-16 09:55:00,
2013-01-16 05:00:00,45.4,44.6,30.06,NW,321,0.0,0.0,97,0.00,,,0.00,Wunderground v.1.15,2013-01-16 10:00:00,
2013-01-16 05:05:00,45.4,44.6,30.07,NW,321,0.0,1.0,97,0.00,,,0.00,Wunderground v.1.15,2013-01-16 10:05:00,
2013-01-16 05:15:00,45.3,44.5,30.06,NW,321,0.0,0.0,97,0.00,,,0.00,Wunderground v.1.15,2013-01-16 10:15:00,
2013-01-16 05:25:00,45.1,44.3,30.06,NW,320,1.0,4.0,97,0.00,,,0.01,Wunderground v.1.15,2013-01-16 10:25:00,
2013-01-16 05:30:00,45.1,44.3,30.06,NW,316,1.0,2.0,97,0.00,,,0.01,Wunderground v.1.15,2013-01-16 10:30:00,
2013-01-16 05:35:00,45.0,44.2,30.06,NNW,336,1.0,2.0,97,0.00,,,0.01,Wunderground v.1.15,2013-01-16 10:35:00,
2013-01-16 05:45:00,45.0,44.2,30.05,NNW,336,1.0,2.0,97,0.00,,,0.01,Wunderground v.1.15,2013-01-16 10:45:00,
2013-01-16 05:55:00,44.8,44.0,30.05,NNW,338,1.0,5.0,97,0.00,,,0.02,Wunderground v.1.15,2013-01-16 10:55:00,
2013-01-16 06:05:00,44.7,43.9,30.05,NNW,338,0.0,1.0,97,0.00,,,0.02,Wunderground v.1.15,2013-01-16 11:05:00,
2013-01-16 06:15:00,44.7,43.9,30.06,NNW,338,0.0,0.0,97,0.00,,,0.02,Wunderground v.1.15,2013-01-16 11:15:00,
2013-01-16 06:25:00,44.7,43.9,30.06,NNW,338,0.0,0.0,97,0.00,,,0.02,Wunderground v.1.15,2013-01-16 11:25:00,
2013-01-16 06:30:00,44.7,43.9,30.05,NNW,338,0.0,0.0,97,0.00,,,0.02,Wunderground v.1.15,2013-01-16 11:30:00,
2013-01-16 06:40:00,44.7,43.9,30.05,NNW,338,0.0,0.0,97,0.00,,,0.02,Wunderground v.1.15,2013-01-16 11:40:00,
2013-01-16 06:50:00,44.8,44.0,30.04,NNW,338,0.0,1.0,97,0.00,,,0.02,Wunderground v.1.15,2013-01-16 11:50:00,
2013-01-16 06:55:00,44.9,44.1,30.04,NNW,338,0.0,1.0,97,0.00,,,0.02,Wunderground v.1.15,2013-01-16 11:55:00,
2013-01-16 07:05:00,44.9,44.1,30.04,NNW,338,0.0,0.0,97,0.00,,,0.02,Wunderground v.1.15,2013-01-16 12:05:00,
2013-01-16 07:15:00,44.8,44.0,30.06,NNW,338,0.0,0.0,97,0.00,,,0.02,Wunderground v.1.15,2013-01-16 12:15:00,
2013-01-16 07:20:00,44.7,43.9,30.06,NNW,338,0.0,1.0,97,0.00,,,0.02,Wunderground v.1.15,2013-01-16 12:20:00,
2013-01-16 07:25:00,44.7,43.9,30.06,NNW,338,0.0,1.0,97,0.00,,,0.02,Wunderground v.1.15,2013-01-16 12:25:00,
2013-01-16 07:35:00,44.7,43.9,30.06,NNW,338,0.0,0.0,97,0.00,,,0.02,Wunderground v.1.15,2013-01-16 12:35:00,
2013-01-16 07:40:00,44.7,43.9,30.06,NNW,338,0.0,0.0,97,0.00,,,0.02,Wunderground v.1.15,2013-01-16 12:40:00,
2013-01-16 07:50:00,44.7,43.9,30.06,NNW,338,0.0,0.0,97,0.00,,,0.02,Wunderground v.1.15,2013-01-16 12:50:00,
2013-01-16 07:55:00,44.6,43.8,30.06,NNW,338,0.0,0.0,97,0.00,,,0.02,Wunderground v.1.15,2013-01-16 12:55:00,
2013-01-16 08:00:00,44.7,43.9,30.06,NNW,338,0.0,0.0,97,0.00,,,0.02,Wunderground v.1.15,2013-01-16 13:00:00,
2013-01-16 08:05:00,44.6,43.8,30.06,NNW,338,0.0,0.0,97,0.00,,,0.02,Wunderground v.1.15,2013-01-16 13:05:00,
2013-01-16 08:15:00,44.7,43.9,30.07,NNW,338,0.0,0.0,97,0.00,,,0.02,Wunderground v.1.15,2013-01-16 13:15:00,
2013-01-16 08:25:00,44.9,44.1,30.08,NNW,338,0.0,2.0,97,0.00,,,0.02,Wunderground v.1.15,2013-01-16 13:25:00,
2013-01-16 08:35:00,44.8,44.0,30.07,NNW,338,1.0,1.0,97,0.00,,,0.02,Wunderground v.1.15,2013-01-16 13:35:00,
2013-01-16 08:45:00,44.9,44.1,30.08,NNW,338,0.0,0.0,97,0.00,,,0.02,Wunderground v.1.15,2013-01-16 13:45:00,
2013-01-16 08:50:00,45.0,44.2,30.08,NNW,338,0.0,0.0,97,0.00,,,0.02,Wunderground v.1.15,2013-01-16 13:50:00,
2013-01-16 08:55:00,45.0,44.2,30.08,NNW,338,0.0,0.0,97,0.00,,,0.02,Wunderground v.1.15,2013-01-16 13:55:00,
2013-01-16 09:00:00,45.0,44.2,30.08,NNW,338,0.0,0.0,97,0.00,,,0.02,Wunderground v.1.15,2013-01-16 14:00:00,
2013-01-16 09:05:00,45.0,44.2,30.08,NNW,338,0.0,0.0,97,0.00,,,0.02,Wunderground v.1.15,2013-01-16 14:05:00,
2013-01-16 09:15:00,45.2,44.4,30.08,NNW,338,0.0,0.0,97,0.00,,,0.02,Wunderground v.1.15,2013-01-16 14:15:00,
2013-01-16 09:25:00,45.3,44.5,30.09,NNW,338,0.0,0.0,97,0.00,,,0.02,Wunderground v.1.15,2013-01-16 14:25:00,
2013-01-16 09:30:00,45.3,44.5,30.08,NNW,338,0.0,0.0,97,0.00,,,0.02,Wunderground v.1.15,2013-01-16 14:30:00,
2013-01-16 09:40:00,45.4,44.6,30.08,NNW,338,0.0,0.0,97,0.00,,,0.02,Wunderground v.1.15,2013-01-16 14:40:00,
2013-01-16 09:50:00,45.6,44.8,30.09,NNW,338,0.0,0.0,97,0.00,,,0.02,Wunderground v.1.15,2013-01-16 14:50:00,
2013-01-16 09:55:00,45.5,44.7,30.08,NNW,338,0.0,0.0,97,0.00,,,0.02,Wunderground v.1.15,2013-01-16 14:55:00,
2013-01-16 10:00:00,45.5,44.7,30.08,NNW,338,0.0,0.0,97,0.00,,,0.02,Wunderground v.1.15,2013-01-16 15:00:00,
2013-01-16 10:05:00,45.5,44.7,30.08,NNW,338,0.0,0.0,97,0.00,,,0.02,Wunderground v.1.15,2013-01-16 15:05:00,
2013-01-16 10:15:00,45.8,45.0,30.07,NNW,338,0.0,0.0,97,0.00,,,0.02,Wunderground v.1.15,2013-01-16 15:15:00,
2013-01-16 10:25:00,45.8,45.0,30.07,NNW,338,0.0,0.0,97,0.00,,,0.02,Wunderground v.1.15,2013-01-16 15:25:00,
2013-01-16 10:35:00,46.0,45.2,30.07,NNW,338,0.0,0.0,97,0.00,,,0.02,Wunderground v.1.15,2013-01-16 15:35:00,
2013-01-16 10:40:00,46.2,45.4,30.07,NNW,338,0.0,0.0,97,0.00,,,0.02,Wunderground v.1.15,2013-01-16 15:40:00,
2013-01-16 10:45:00,46.3,45.5,30.06,NNW,338,0.0,0.0,97,0.00,,,0.02,Wunderground v.1.15,2013-01-16 15:45:00,
2013-01-16 10:50:00,46.2,45.4,30.06,NNW,338,0.0,0.0,97,0.00,,,0.02,Wunderground v.1.15,2013-01-16 15:50:00,
2013-01-16 11:00:00,46.4,45.6,30.06,NNW,338,0.0,0.0,97,0.00,,,0.02,Wunderground v.1.15,2013-01-16 16:00:00,
2013-01-16 11:05:00,46.5,45.7,30.06,NNW,338,0.0,0.0,97,0.00,,,0.02,Wunderground v.1.15,2013-01-16 16:05:00,
2013-01-16 11:15:00,46.6,45.8,30.06,NNW,338,0.0,0.0,97,0.00,,,0.02,Wunderground v.1.15,2013-01-16 16:15:00,
2013-01-16 11:25:00,46.6,45.8,30.06,NNW,338,1.0,2.0,97,0.00,,,0.02,Wunderground v.1.15,2013-01-16 16:25:00,
2013-01-16 11:30:00,46.6,45.8,30.06,NNW,338,1.0,1.0,97,0.00,,,0.02,Wunderground v.1.15,2013-01-16 16:30:00,
2013-01-16 11:35:00,46.7,45.9,30.06,NNW,338,0.0,2.0,97,0.00,,,0.02,Wunderground v.1.15,2013-01-16 16:35:00,
2013-01-16 11:40:00,46.7,45.9,30.07,NNW,331,1.0,1.0,97,0.00,,,0.02,Wunderground v.1.15,2013-01-16 16:40:00,
2013-01-16 11:50:00,46.6,45.8,30.07,NW,315,2.0,2.0,97,0.00,,,0.02,Wunderground v.1.15,2013-01-16 16:50:00,
2013-01-16 12:00:00,46.4,45.6,30.07,NNW,329,2.0,5.0,97,0.00,,,0.02,Wunderground v.1.15,2013-01-16 17:00:00,
2013-01-16 12:05:00,46.2,45.4,30.07,NNW,334,3.0,5.0,97,0.00,,,0.02,Wunderground v.1.15,2013-01-16 17:05:00,
2013-01-16 12:15:00,45.7,44.9,30.07,WNW,289,4.0,8.0,97,0.00,,,0.02,Wunderground v.1.15,2013-01-16 17:15:00,
2013-01-16 12:20:00,45.4,44.6,30.07,NNW,343,4.0,4.0,97,0.00,,,0.02,Wunderground v.1.15,2013-01-16 17:20:00,
2013-01-16 12:25:00,45.2,44.4,30.06,NNE,17,2.0,4.0,97,0.00,,,0.02,Wunderground v.1.15,2013-01-16 17:25:00,
2013-01-16 12:30:00,45.2,44.4,30.06,NW,313,1.0,2.0,97,0.00,,,0.02,Wunderground v.1.15,2013-01-16 17:30:00,
2013-01-16 12:35:00,45.1,44.3,30.06,NNW,340,2.0,6.0,97,0.00,,,0.02,Wunderground v.1.15,2013-01-16 17:35:00,
2013-01-16 12:45:00,44.9,44.1,30.05,North,5,1.0,2.0,97,0.00,,,0.02,Wunderground v.1.15,2013-01-16 17:45:00,
2013-01-16 12:50:00,44.9,44.1,30.06,NW,315,1.0,4.0,97,0.00,,,0.03,Wunderground v.1.15,2013-01-16 17:50:00,
2013-01-16 12:55:00,44.9,44.1,30.06,NW,324,1.0,4.0,97,0.00,,,0.03,Wunderground v.1.15,2013-01-16 17:55:00,
2013-01-16 13:05:00,44.7,43.9,30.06,NNE,22,1.0,1.0,97,0.05,,,0.04,Wunderground v.1.15,2013-01-16 18:05:00,
2013-01-16 13:15:00,44.6,43.8,30.05,North,5,0.0,1.0,97,0.04,,,0.04,Wunderground v.1.15,2013-01-16 18:15:00,
2013-01-16 13:25:00,44.6,43.8,30.05,North,5,0.0,0.0,97,0.00,,,0.04,Wunderground v.1.15,2013-01-16 18:25:00,
2013-01-16 13:35:00,44.6,43.8,30.04,North,5,0.0,0.0,97,0.09,,,0.06,Wunderground v.1.15,2013-01-16 18:35:00,
2013-01-16 13:45:00,44.9,44.1,30.03,North,5,0.0,0.0,97,0.06,,,0.06,Wunderground v.1.15,2013-01-16 18:45:00,
2013-01-16 13:55:00,45.1,44.3,30.03,ENE,69,1.0,3.0,97,0.00,,,0.06,Wunderground v.1.15,2013-01-16 18:55:00,
2013-01-16 14:05:00,45.5,44.7,30.03,East,84,1.0,2.0,97,0.00,,,0.07,Wunderground v.1.15,2013-01-16 19:05:00,
2013-01-16 14:15:00,45.6,44.8,30.03,East,101,2.0,4.0,97,0.00,,,0.07,Wunderground v.1.15,2013-01-16 19:15:00,
2013-01-16 14:25:00,45.9,45.1,30.02,SE,127,3.0,5.0,97,0.00,,,0.07,Wunderground v.1.15,2013-01-16 19:25:00,
2013-01-16 14:35:00,46.5,45.7,30.02,SE,135,2.0,5.0,97,0.00,,,0.07,Wunderground v.1.15,2013-01-16 19:35:00,
2013-01-16 14:45:00,46.9,46.1,30.02,SE,136,2.0,3.0,97,0.00,,,0.07,Wunderground v.1.15,2013-01-16 19:45:00,
2013-01-16 14:55:00,47.0,46.2,30.02,SE,136,0.0,0.0,97,0.00,,,0.07,Wunderground v.1.15,2013-01-16 19:55:00,
2013-01-16 15:00:00,47.1,46.3,30.02,SE,136,0.0,0.0,97,0.00,,,0.07,Wunderground v.1.15,2013-01-16 20:00:00,
2013-01-16 15:05:00,47.2,46.4,30.02,SE,136,0.0,0.0,97,0.00,,,0.07,Wunderground v.1.15,2013-01-16 20:05:00,
2013-01-16 15:15:00,47.4,46.6,30.02,SE,136,0.0,1.0,97,0.00,,,0.07,Wunderground v.1.15,2013-01-16 20:15:00,
2013-01-16 15:25:00,47.6,46.8,30.02,SE,136,0.0,1.0,97,0.00,,,0.07,Wunderground v.1.15,2013-01-16 20:25:00,
2013-01-16 15:30:00,47.6,46.8,30.03,SE,136,0.0,4.0,97,0.00,,,0.07,Wunderground v.1.15,2013-01-16 20:30:00,
2013-01-16 15:40:00,47.8,47.0,30.02,NE,54,0.0,0.0,97,0.00,,,0.07,Wunderground v.1.15,2013-01-16 20:40:00,
2013-01-16 15:50:00,47.9,47.1,30.03,SSE,160,0.0,0.0,97,0.00,,,0.07,Wunderground v.1.15,2013-01-16 20:50:00,
2013-01-16 15:55:00,48.1,47.3,30.03,SSE,165,1.0,4.0,97,0.00,,,0.07,Wunderground v.1.15,2013-01-16 20:55:00,
2013-01-16 16:05:00,48.3,47.5,30.03,SSE,165,0.0,1.0,97,0.00,,,0.07,Wunderground v.1.15,2013-01-16 21:05:00,
2013-01-16 16:15:00,48.5,47.7,30.03,SSE,165,0.0,1.0,97,0.00,,,0.07,Wunderground v.1.15,2013-01-16 21:15:00,
2013-01-16 16:20:00,48.5,47.7,30.03,SSE,165,0.0,0.0,97,0.00,,,0.07,Wunderground v.1.15,2013-01-16 21:20:00,
2013-01-16 16:25:00,48.6,47.8,30.03,SSE,165,0.0,0.0,97,0.00,,,0.07,Wunderground v.1.15,2013-01-16 21:25:00,
2013-01-16 16:30:00,48.6,47.8,30.03,SSE,165,0.0,0.0,97,0.00,,,0.07,Wunderground v.1.15,2013-01-16 21:30:00,
2013-01-16 16:40:00,48.8,48.0,30.03,SSE,165,0.0,0.0,97,0.00,,,0.07,Wunderground v.1.15,2013-01-16 21:40:00,
2013-01-16 16:50:00,49.0,48.2,30.03,SSE,165,0.0,0.0,97,0.00,,,0.07,Wunderground v.1.15,2013-01-16 21:50:00,
2013-01-16 17:00:00,49.1,48.3,30.03,SSE,165,0.0,0.0,97,0.00,,,0.07,Wunderground v.1.15,2013-01-16 22:00:00,
2013-01-16 17:05:00,49.2,48.4,30.03,SSE,165,0.0,0.0,97,0.00,,,0.07,Wunderground v.1.15,2013-01-16 22:05:00,
2013-01-16 17:15:00,49.3,48.5,30.02,SSE,165,0.0,0.0,97,0.00,,,0.07,Wunderground v.1.15,2013-01-16 22:15:00,
2013-01-16 17:25:00,49.3,48.5,30.02,SSE,165,0.0,0.0,97,0.00,,,0.07,Wunderground v.1.15,2013-01-16 22:25:00,
2013-01-16 17:35:00,49.4,48.6,30.02,SSE,165,0.0,0.0,97,0.00,,,0.07,Wunderground v.1.15,2013-01-16 22:35:00,
2013-01-16 17:45:00,49.4,48.6,30.01,SSE,165,0.0,0.0,97,0.00,,,0.07,Wunderground v.1.15,2013-01-16 22:45:00,
2013-01-16 17:50:00,49.4,48.6,30.01,SSE,165,0.0,0.0,97,0.00,,,0.07,Wunderground v.1.15,2013-01-16 22:50:00,
2013-01-16 17:55:00,49.5,48.7,30.01,SSE,165,0.0,0.0,97,0.00,,,0.07,Wunderground v.1.15,2013-01-16 22:55:00,
2013-01-16 18:00:00,49.5,48.7,30.02,SSE,165,0.0,0.0,97,0.00,,,0.07,Wunderground v.1.15,2013-01-16 23:00:00,
2013-01-16 18:05:00,49.6,48.8,30.02,SSE,165,0.0,0.0,97,0.00,,,0.07,Wunderground v.1.15,2013-01-16 23:05:00,
2013-01-16 18:15:00,49.6,48.8,30.02,SSE,165,0.0,0.0,97,0.00,,,0.07,Wunderground v.1.15,2013-01-16 23:15:00,
2013-01-16 18:20:00,49.7,48.9,30.02,SSE,165,0.0,0.0,97,0.00,,,0.07,Wunderground v.1.15,2013-01-16 23:20:00,
2013-01-16 18:30:00,49.9,49.1,30.01,SSE,165,0.0,0.0,97,0.00,,,0.07,Wunderground v.1.15,2013-01-16 23:30:00,
2013-01-16 18:40:00,49.8,49.0,30.01,SSE,165,0.0,0.0,97,0.00,,,0.07,Wunderground v.1.15,2013-01-16 23:40:00,
2013-01-16 18:45:00,49.9,49.1,30.01,SSE,165,0.0,0.0,97,0.00,,,0.07,Wunderground v.1.15,2013-01-16 23:45:00,
2013-01-16 18:55:00,49.9,49.1,30.02,SSE,165,0.0,0.0,97,0.00,,,0.07,Wunderground v.1.15,2013-01-16 23:55:00,
2013-01-16 19:05:00,50.1,49.3,30.02,SW,234,1.0,1.0,97,0.00,,,0.07,Wunderground v.1.15,2013-01-17 00:05:00,
2013-01-16 19:15:00,50.2,49.4,30.03,SW,234,1.0,1.0,97,0.00,,,0.07,Wunderground v.1.15,2013-01-17 00:15:00,
2013-01-16 19:20:00,50.1,49.3,30.03,West,267,2.0,2.0,97,0.00,,,0.07,Wunderground v.1.15,2013-01-17 00:20:00,
2013-01-16 19:25:00,49.9,49.1,30.03,West,271,3.0,3.0,97,0.00,,,0.07,Wunderground v.1.15,2013-01-17 00:25:00,
2013-01-16 19:30:00,49.8,49.0,30.03,West,271,2.0,2.0,97,0.00,,,0.07,Wunderground v.1.15,2013-01-17 00:30:00,
2013-01-16 19:35:00,49.7,48.9,30.02,West,271,2.0,2.0,97,0.00,,,0.07,Wunderground v.1.15,2013-01-17 00:35:00,
2013-01-16 19:45:00,49.6,48.8,30.02,West,263,2.0,2.0,97,0.00,,,0.07,Wunderground v.1.15,2013-01-17 00:45:00,
2013-01-16 19:50:00,49.5,48.7,30.03,West,263,1.0,3.0,97,0.00,,,0.07,Wunderground v.1.15,2013-01-17 00:50:00,
2013-01-16 20:00:00,49.6,48.8,30.03,West,263,1.0,1.0,97,0.00,,,0.07,Wunderground v.1.15,2013-01-17 01:00:00,
2013-01-16 20:05:00,49.6,48.8,30.03,West,274,1.0,5.0,97,0.00,,,0.07,Wunderground v.1.15,2013-01-17 01:05:00,
2013-01-16 20:15:00,49.6,48.8,30.02,West,274,1.0,1.0,97,0.00,,,0.07,Wunderground v.1.15,2013-01-17 01:15:00,
2013-01-16 20:20:00,49.6,48.8,30.02,West,275,1.0,1.0,97,0.00,,,0.07,Wunderground v.1.15,2013-01-17 01:20:00,
2013-01-16 20:25:00,49.6,48.8,30.03,West,277,1.0,5.0,97,0.00,,,0.07,Wunderground v.1.15,2013-01-17 01:25:00,
2013-01-16 20:35:00,49.6,48.8,30.03,West,279,1.0,4.0,97,0.00,,,0.07,Wunderground v.1.15,2013-01-17 01:35:00,
2013-01-16 20:40:00,49.6,48.8,30.03,West,279,1.0,2.0,97,0.00,,,0.07,Wunderground v.1.15,2013-01-17 01:40:00,
2013-01-16 20:45:00,49.6,48.8,30.03,West,275,1.0,2.0,97,0.00,,,0.07,Wunderground v.1.15,2013-01-17 01:45:00,
2013-01-16 20:50:00,49.6,48.8,30.03,West,275,1.0,1.0,97,0.00,,,0.07,Wunderground v.1.15,2013-01-17 01:50:00,
2013-01-16 20:55:00,49.7,48.9,30.04,West,275,1.0,1.0,97,0.00,,,0.07,Wunderground v.1.15,2013-01-17 01:55:00,
2013-01-16 21:05:00,49.6,48.8,30.04,West,275,0.0,1.0,97,0.00,,,0.07,Wunderground v.1.15,2013-01-17 02:05:00,
2013-01-16 21:15:00,49.6,48.8,30.04,West,275,0.0,0.0,97,0.00,,,0.07,Wunderground v.1.15,2013-01-17 02:15:00,
2013-01-16 21:25:00,49.6,48.8,30.04,West,275,0.0,0.0,97,0.00,,,0.07,Wunderground v.1.15,2013-01-17 02:25:00,
2013-01-16 21:35:00,49.6,48.8,30.02,West,275,0.0,0.0,97,0.00,,,0.07,Wunderground v.1.15,2013-01-17 02:35:00,
2013-01-16 21:45:00,49.6,48.8,30.02,West,275,0.0,0.0,97,0.00,,,0.07,Wunderground v.1.15,2013-01-17 02:45:00,
2013-01-16 21:50:00,49.7,48.9,30.02,West,275,0.0,0.0,97,0.00,,,0.07,Wunderground v.1.15,2013-01-17 02:50:00,
2013-01-16 21:55:00,49.7,48.9,30.02,West,275,0.0,0.0,97,0.00,,,0.07,Wunderground v.1.15,2013-01-17 02:55:00,
2013-01-16 22:05:00,49.8,49.0,30.02,West,275,0.0,0.0,97,0.00,,,0.07,Wunderground v.1.15,2013-01-17 03:05:00,
2013-01-16 22:15:00,49.8,49.0,30.01,West,275,0.0,0.0,97,0.00,,,0.07,Wunderground v.1.15,2013-01-17 03:15:00,
2013-01-16 22:25:00,49.8,49.0,30.01,West,275,0.0,0.0,97,0.00,,,0.07,Wunderground v.1.15,2013-01-17 03:25:00,
2013-01-16 22:30:00,49.9,49.1,30.01,West,275,0.0,0.0,97,0.00,,,0.07,Wunderground v.1.15,2013-01-17 03:30:00,
2013-01-16 22:35:00,49.9,49.1,30.01,West,275,0.0,0.0,97,0.00,,,0.07,Wunderground v.1.15,2013-01-17 03:35:00,
2013-01-16 22:45:00,50.0,49.2,30.02,West,275,0.0,0.0,97,0.00,,,0.07,Wunderground v.1.15,2013-01-17 03:45:00,
2013-01-16 22:55:00,50.0,49.2,30.02,West,275,0.0,0.0,97,0.00,,,0.07,Wunderground v.1.15,2013-01-17 03:55:00,
2013-01-16 23:00:00,50.0,49.2,30.03,West,275,0.0,0.0,97,0.00,,,0.07,Wunderground v.1.15,2013-01-17 04:00:00,
2013-01-16 23:05:00,50.0,49.2,30.02,West,275,0.0,0.0,97,0.00,,,0.07,Wunderground v.1.15,2013-01-17 04:05:00,
2013-01-16 23:15:00,50.0,49.2,30.02,West,275,0.0,0.0,97,0.00,,,0.08,Wunderground v.1.15,2013-01-17 04:15:00,
2013-01-16 23:25:00,50.1,49.3,30.02,West,275,0.0,0.0,97,0.00,,,0.08,Wunderground v.1.15,2013-01-17 04:25:00,
2013-01-16 23:30:00,50.2,49.4,30.02,West,275,0.0,0.0,97,0.00,,,0.08,Wunderground v.1.15,2013-01-17 04:30:00,
2013-01-16 23:35:00,50.3,49.5,30.02,West,275,0.0,0.0,97,0.00,,,0.08,Wunderground v.1.15,2013-01-17 04:35:00,
2013-01-16 23:40:00,50.3,49.8,30.02,West,275,0.0,0.0,98,0.00,,,0.08,Wunderground v.1.15,2013-01-17 04:40:00,
2013-01-16 23:50:00,50.4,49.9,30.01,West,275,0.0,0.0,98,0.07,,,0.10,Wunderground v.1.15,2013-01-17 04:50:00,